timestamp,wind_dir_avg,wind_spd_avg,wind_spd_max_dir,wind_spd_gust,battery_voltage,lat,long
2021-10-26 00:04:01+00:00,296.0,6.02,298.0,6.8,12.57,47.59359,-54.27349
2021-10-26 00:14:01+00:00,287.0,5.39,282.0,6.55,12.57,47.59359,-54.27349
2021-10-26 00:24:01+00:00,286.0,5.81,290.0,6.45,12.57,47.59359,-54.27349
2021-10-26 00:34:01+00:00,282.0,4.67,284.0,6.0,12.57,47.59359,-54.27349
2021-10-26 00:44:01+00:00,316.0,2.27,290.0,5.36,12.57,47.59359,-54.27349
2021-10-26 00:54:01+00:00,288.0,5.43,287.0,6.39,12.57,47.59359,-54.27349
2021-10-26 01:04:01+00:00,311.0,3.22,297.0,6.11,12.57,47.59359,-54.27349
2021-10-26 01:14:01+00:00,311.0,3.84,296.0,5.99,12.57,47.59359,-54.27349
2021-10-26 01:24:01+00:00,297.0,4.09,285.0,6.65,12.57,47.59359,-54.27349
2021-10-26 01:34:01+00:00,285.0,4.85,285.0,6.18,12.57,47.59359,-54.27349
2021-10-26 01:44:01+00:00,283.0,5.81,282.0,6.79,12.57,47.59359,-54.27349
2021-10-26 01:54:01+00:00,293.0,4.77,288.0,6.64,12.57,47.59359,-54.27349
2021-10-26 02:04:01+00:00,276.0,5.76,278.0,6.51,12.57,47.59359,-54.27349
2021-10-26 02:14:00+00:00,285.0,4.38,290.0,5.22,12.57,47.59359,-54.27349
2021-10-26 02:24:00+00:00,270.0,3.78,269.0,6.44,12.57,47.59359,-54.27349
2021-10-26 02:34:00+00:00,273.0,4.34,275.0,6.5,12.57,47.59359,-54.27349
2021-10-26 02:44:00+00:00,267.0,3.75,271.0,6.55,12.57,47.59359,-54.27349
2021-10-26 02:54:00+00:00,270.0,4.96,271.0,6.59,12.57,47.59359,-54.27349
2021-10-26 03:04:00+00:00,271.0,3.32,271.0,5.49,12.57,47.59359,-54.27349
2021-10-26 03:14:01+00:00,241.0,3.7,259.0,6.42,12.57,47.59359,-54.27349
2021-10-26 03:24:01+00:00,257.0,3.34,259.0,4.36,12.57,47.59359,-54.27349
2021-10-26 03:34:01+00:00,274.0,3.57,264.0,4.83,12.57,47.59359,-54.27349
2021-10-26 03:44:01+00:00,264.0,3.85,269.0,4.77,12.57,47.59359,-54.27349
2021-10-26 03:54:01+00:00,278.0,4.44,270.0,5.13,12.57,47.59359,-54.27349
2021-10-26 04:04:01+00:00,290.0,5.09,296.0,5.94,12.57,47.59359,-54.27349
2021-10-26 04:14:01+00:00,298.0,5.08,300.0,5.63,12.49,47.59359,-54.27349
2021-10-26 04:24:01+00:00,296.0,4.36,288.0,6.89,12.49,47.59359,-54.27349
2021-10-26 04:34:01+00:00,290.0,4.43,285.0,6.86,12.49,47.59359,-54.27349
2021-10-26 04:44:01+00:00,296.0,5.56,295.0,7.27,12.49,47.59359,-54.27349
2021-10-26 04:54:01+00:00,300.0,5.21,302.0,5.9,12.49,47.59359,-54.27349
2021-10-26 05:04:01+00:00,307.0,5.32,305.0,6.02,12.49,47.59359,-54.27349
2021-10-26 05:14:01+00:00,295.0,5.65,292.0,6.8,12.49,47.59359,-54.27349
2021-10-26 05:24:01+00:00,296.0,4.78,285.0,5.51,12.49,47.59359,-54.27349
2021-10-26 05:34:01+00:00,276.0,4.88,281.0,5.51,12.49,47.59359,-54.27349
2021-10-26 05:44:01+00:00,288.0,4.26,281.0,5.76,12.49,47.59359,-54.27349
2021-10-26 05:54:01+00:00,276.0,4.35,277.0,5.05,12.49,47.59359,-54.27349
2021-10-26 06:04:01+00:00,280.0,4.52,282.0,5.22,12.49,47.59359,-54.27349
2021-10-26 06:14:01+00:00,273.0,3.74,277.0,6.64,12.49,47.59359,-54.27349
2021-10-26 06:24:01+00:00,268.0,3.73,266.0,5.65,12.49,47.59359,-54.27349
2021-10-26 06:34:01+00:00,274.0,3.6,271.0,5.0,12.49,47.59359,-54.27349
2021-10-26 06:44:01+00:00,275.0,5.47,278.0,6.54,12.49,47.59359,-54.27349
2021-10-26 06:54:01+00:00,290.0,5.1,294.0,6.24,12.49,47.59359,-54.27349
2021-10-26 07:04:01+00:00,286.0,6.73,291.0,7.86,12.49,47.59359,-54.27349
2021-10-26 07:14:01+00:00,307.0,4.37,302.0,5.67,12.49,47.59359,-54.27349
2021-10-26 07:24:01+00:00,289.0,3.81,283.0,6.44,12.49,47.59359,-54.27349
2021-10-26 07:34:01+00:00,295.0,4.09,288.0,6.29,12.49,47.59359,-54.27349
2021-10-26 07:44:01+00:00,299.0,5.62,300.0,6.86,12.49,47.59359,-54.27349
2021-10-26 07:54:01+00:00,299.0,4.95,293.0,5.71,12.49,47.59359,-54.27349
2021-10-26 08:04:01+00:00,294.0,4.07,291.0,4.87,12.49,47.59359,-54.27349
2021-10-26 08:14:01+00:00,297.0,3.81,290.0,5.23,12.41,47.59359,-54.27349
2021-10-26 08:24:01+00:00,288.0,4.44,304.0,5.51,12.41,47.59359,-54.27349
2021-10-26 08:34:01+00:00,303.0,4.64,305.0,5.82,12.41,47.59359,-54.27349
2021-10-26 08:44:01+00:00,292.0,4.96,292.0,5.93,12.41,47.59359,-54.27349
2021-10-26 08:54:01+00:00,292.0,5.08,297.0,6.98,12.41,47.59359,-54.27349
2021-10-26 09:04:01+00:00,291.0,5.46,292.0,7.02,12.41,47.59359,-54.27349
2021-10-26 09:14:01+00:00,302.0,4.93,299.0,7.4,12.41,47.59359,-54.27349
2021-10-26 09:24:01+00:00,307.0,4.99,305.0,5.84,12.41,47.59359,-54.27349
2021-10-26 09:34:01+00:00,309.0,5.3,305.0,6.33,12.41,47.59359,-54.27349
2021-10-26 09:44:01+00:00,297.0,6.31,297.0,7.49,12.41,47.59359,-54.27349
2021-10-26 09:54:01+00:00,316.0,8.08,319.0,9.99,12.41,47.59359,-54.27349
2021-10-26 10:04:01+00:00,323.0,7.41,314.0,8.59,12.41,47.59359,-54.27349
2021-10-26 10:14:01+00:00,314.0,6.9,320.0,8.04,12.41,47.59359,-54.27349
2021-10-26 10:24:01+00:00,313.0,6.9,320.0,8.07,12.41,47.59359,-54.27349
2021-10-26 10:34:01+00:00,316.0,5.87,314.0,6.74,12.41,47.59359,-54.27349
2021-10-26 10:44:01+00:00,315.0,6.45,311.0,7.56,12.41,47.59359,-54.27349
2021-10-26 10:54:01+00:00,314.0,6.67,317.0,8.63,12.41,47.59359,-54.27349
2021-10-26 11:04:01+00:00,313.0,6.76,308.0,7.86,12.41,47.59359,-54.27349
2021-10-26 11:14:01+00:00,315.0,5.15,310.0,6.16,12.65,47.59359,-54.27349
2021-10-26 11:24:01+00:00,330.0,4.74,324.0,6.09,12.65,47.59359,-54.27349
2021-10-26 11:34:01+00:00,331.0,4.76,331.0,5.36,12.65,47.59359,-54.27349
2021-10-26 11:44:01+00:00,320.0,5.68,321.0,6.15,12.65,47.59359,-54.27349
2021-10-26 11:54:01+00:00,308.0,4.54,306.0,6.03,12.65,47.59359,-54.27349
2021-10-26 12:04:01+00:00,304.0,4.8,308.0,5.99,12.65,47.59359,-54.27349
2021-10-26 12:14:01+00:00,313.0,4.57,321.0,5.14,14.32,47.59359,-54.27349
2021-10-26 12:24:01+00:00,299.0,5.2,299.0,6.2,14.32,47.59359,-54.27349
2021-10-26 12:34:01+00:00,311.0,4.73,302.0,7.12,14.32,47.59359,-54.27349
2021-10-26 12:44:01+00:00,300.0,6.68,303.0,7.5,14.32,47.59359,-54.27349
2021-10-26 12:54:01+00:00,296.0,6.01,295.0,7.4,14.32,47.59359,-54.27349
2021-10-26 13:04:01+00:00,305.0,5.12,307.0,6.43,14.32,47.59359,-54.27349
2021-10-26 13:14:00+00:00,297.0,5.7,302.0,7.66,13.92,47.59359,-54.27349
2021-10-26 13:24:00+00:00,312.0,4.06,319.0,5.32,13.92,47.59359,-54.27349
2021-10-26 13:34:00+00:00,308.0,4.56,304.0,6.01,13.92,47.59359,-54.27349
2021-10-26 13:44:00+00:00,315.0,4.82,310.0,7.1,13.92,47.59359,-54.27349
2021-10-26 13:54:00+00:00,320.0,8.1,319.0,9.99,13.92,47.59359,-54.27349
2021-10-26 14:04:00+00:00,303.0,4.69,316.0,6.15,13.92,47.59359,-54.27349
2021-10-26 14:14:01+00:00,319.0,5.96,327.0,7.16,13.84,47.59359,-54.27349
2021-10-26 14:24:01+00:00,322.0,7.74,327.0,8.81,13.84,47.59359,-54.27349
2021-10-26 14:34:01+00:00,321.0,6.42,312.0,8.1,13.84,47.59359,-54.27349
2021-10-26 14:44:01+00:00,328.0,5.73,313.0,7.17,13.84,47.59359,-54.27349
2021-10-26 14:54:01+00:00,318.0,6.54,322.0,7.71,13.84,47.59359,-54.27349
2021-10-26 15:04:01+00:00,316.0,6.13,322.0,7.18,13.84,47.59359,-54.27349
2021-10-26 15:14:01+00:00,330.0,8.53,328.0,9.49,13.84,47.59359,-54.27349
2021-10-26 15:24:01+00:00,315.0,7.24,322.0,8.5,13.84,47.59359,-54.27349
2021-10-26 15:34:01+00:00,327.0,8.86,322.0,10.8,13.84,47.59359,-54.27349
2021-10-26 15:44:01+00:00,321.0,6.73,317.0,7.92,13.84,47.59359,-54.27349
2021-10-26 15:54:01+00:00,324.0,7.5,328.0,9.25,13.84,47.59359,-54.27349
2021-10-26 16:04:01+00:00,310.0,5.98,304.0,7.82,13.84,47.59359,-54.27349
2021-10-26 16:14:01+00:00,329.0,9.4,326.0,10.89,13.68,47.59359,-54.27349
2021-10-26 16:24:01+00:00,349.0,6.78,322.0,8.36,13.68,47.59359,-54.27349
2021-10-26 16:34:01+00:00,1.0,6.78,359.0,7.41,13.68,47.59359,-54.27349
2021-10-26 16:44:01+00:00,335.0,6.43,317.0,8.25,13.68,47.59359,-54.27349
2021-10-26 16:54:01+00:00,317.0,7.97,315.0,8.95,13.68,47.59359,-54.27349
2021-10-26 17:04:01+00:00,314.0,6.72,314.0,8.01,13.68,47.59359,-54.27349
2021-10-26 17:14:01+00:00,348.0,3.86,327.0,5.13,13.6,47.59359,-54.27349
2021-10-26 17:24:01+00:00,1.0,5.05,1.0,6.53,13.6,47.59359,-54.27349
2021-10-26 17:34:01+00:00,356.0,4.92,355.0,5.59,13.6,47.59359,-54.27349
2021-10-26 17:44:01+00:00,337.0,3.52,298.0,6.16,13.6,47.59359,-54.27349
2021-10-26 17:54:01+00:00,320.0,6.61,322.0,7.6,13.6,47.59359,-54.27349
2021-10-26 18:04:01+00:00,325.0,5.69,308.0,7.56,13.6,47.59359,-54.27349
2021-10-26 18:14:01+00:00,4.0,6.11,1.0,7.09,13.6,47.59359,-54.27349
2021-10-26 18:24:01+00:00,7.0,6.69,19.0,7.6,13.6,47.59359,-54.27349
2021-10-26 18:34:01+00:00,0.0,5.62,357.0,7.81,13.6,47.59359,-54.27349
2021-10-26 18:44:01+00:00,5.0,5.65,19.0,7.13,13.6,47.59359,-54.27349
2021-10-26 18:54:01+00:00,354.0,5.22,332.0,6.5,13.6,47.59359,-54.27349
2021-10-26 19:04:01+00:00,353.0,5.49,357.0,6.61,13.6,47.59359,-54.27349
2021-10-26 19:14:01+00:00,2.0,4.51,1.0,5.19,13.44,47.59359,-54.27349
2021-10-26 19:24:01+00:00,2.0,4.39,1.0,5.17,13.44,47.59359,-54.27349
2021-10-26 19:34:01+00:00,340.0,4.78,312.0,7.24,13.44,47.59359,-54.27349
2021-10-26 19:44:01+00:00,328.0,5.1,308.0,7.22,13.44,47.59359,-54.27349
2021-10-26 19:54:01+00:00,355.0,4.46,317.0,6.11,13.44,47.59359,-54.27349
2021-10-26 20:04:01+00:00,345.0,4.22,325.0,5.5,13.44,47.59359,-54.27349
2021-10-26 20:14:01+00:00,353.0,3.59,354.0,3.95,12.89,47.59359,-54.27349
2021-10-26 20:24:01+00:00,20.0,5.17,16.0,6.16,12.89,47.59359,-54.27349
2021-10-26 20:34:01+00:00,5.0,5.36,7.0,6.45,12.89,47.59359,-54.27349
2021-10-26 20:44:01+00:00,358.0,4.06,359.0,4.76,12.89,47.59359,-54.27349
2021-10-26 20:54:01+00:00,2.0,5.3,4.0,6.17,12.89,47.59359,-54.27349
2021-10-26 21:04:01+00:00,2.0,5.51,358.0,6.83,12.89,47.59359,-54.27349
2021-10-26 21:14:01+00:00,13.0,5.23,23.0,6.43,12.65,47.59359,-54.27349
2021-10-26 21:24:01+00:00,22.0,6.06,36.0,6.93,12.65,47.59359,-54.27349
2021-10-26 21:34:01+00:00,5.0,6.53,5.0,7.57,12.65,47.59359,-54.27349
2021-10-26 21:44:01+00:00,0.0,5.62,358.0,6.37,12.65,47.59359,-54.27349
2021-10-26 21:54:01+00:00,13.0,4.88,42.0,6.44,12.65,47.59359,-54.27349
2021-10-26 22:04:01+00:00,48.0,5.69,55.0,6.93,12.65,47.59359,-54.27349
2021-10-26 22:14:01+00:00,42.0,5.66,49.0,7.32,12.65,47.59359,-54.27349
2021-10-26 22:24:01+00:00,36.0,6.12,56.0,7.34,12.65,47.59359,-54.27349
2021-10-26 22:34:01+00:00,38.0,5.31,56.0,7.05,12.65,47.59359,-54.27349
2021-10-26 22:44:01+00:00,36.0,6.32,46.0,7.27,12.65,47.59359,-54.27349
2021-10-26 22:54:01+00:00,46.0,6.09,58.0,7.66,12.65,47.59359,-54.27349
2021-10-26 23:04:01+00:00,51.0,6.4,61.0,7.48,12.65,47.59359,-54.27349
2021-10-26 23:14:00+00:00,57.0,6.3,59.0,7.51,12.57,47.59359,-54.27349
2021-10-26 23:24:00+00:00,48.0,6.76,53.0,8.45,12.57,47.59359,-54.27349
2021-10-26 23:34:00+00:00,38.0,6.54,35.0,7.43,12.57,47.59359,-54.27349
2021-10-26 23:44:00+00:00,32.0,6.95,34.0,7.84,12.57,47.59359,-54.27349
2021-10-26 23:54:00+00:00,33.0,6.43,37.0,7.18,12.57,47.59359,-54.27349
